Location: Cheyres
(46.8153°N, 6.7877°E)
Time: 02:38:36
(UTC+00:00)

Cosmos 2082 Rocket - Pass Details

Date: 11 May 2021
Orbit: 834 x 852 km, 71.0° (Epoch: 18 June)

Event Time Altitude Azimuth Distance (km) Brightness Sun altitude
Rises 21:36:12 0° 330° (NNW) 3,392 7.0 -20.3°
Reaches altitude 10° 21:38:39 10° 328° (NNW) 2,455 5.8 -20.5°
Maximum altitude 21:44:12 63° 248° (WSW) 929 2.4 -20.9°
Enters shadow 21:46:13 39° 184° (S) 1,241 2.6 -21.0°
